User: anonymous   Login
Location: Churchill
(58.7670°N, 94.1670°W)
Time: 06:31:42
(UTC-06:00)
Language:

Cosmos 2142 Rocket - Orbit

View from above orbital plane
View from above orbital plane
View from above satellite
View from above satellite

Ground track
Ground track

The orbit data is extracted from the following two-line orbital elements,

1 21231U 91029B   15064.54023203  .00000088  00000-0  74548-4 0  9993
2 21231 082.9553 006.8825 0036227 043.2126 084.2999 13.75668610199025
Epoch (UTC): 05 March 2015 12:57:56
Eccentricity: 0.0036227
inclination: 82.9553°
perigee height: 952 km
apogee height: 1006 km
right ascension of ascending node: 6.8825°
argument of perigee: 43.2126°
revolutions per day: 13.75668610
mean anomaly at epoch: 84.2999°
orbit number at epoch: 19902

The dashed part of the orbit path shows where the satellite is in the earth's shadow,  

DLR